Weather in Jílové u Prahy

Czech Republic     49°53′42″N   14°29′35″E
temp.,
°C
wind,
m/s
gust,
m/s
humid.,
%
clouds,
%
prec.,
mm/h
press.,
hPa
HPBL,
m
31 july, sat
sat3123:00+20ssw3569100 0.0 100899
02:00+19wsw2483100 1.0 1009121
05:00+17sw41094100 1.6 1009339
08:00+19wsw5118182 1.9 1010644
11:00+22w69475 0.0 10111390
14:00+25wsw69395 0.0 10101875
17:00+25wsw68380 0.0 10091900
20:00+21w375311 0.0 1010664
1 august, sun
sun123:00+17wsw356386 0.0 1011163
02:00+16w1168100 0.0 101034
05:00+16n1168100 0.0 100962
08:00+14ene2396100 12.7 1009193
11:00+14nne3590100 1.9 1009385
14:00+14nnw2392100 6.6 1010241
17:00+16w237953 0.2 1010524
20:00+17wsw3680100 0.2 1010317
2 august, mon
mon223:00+15wsw41085100 0.1 1011367
02:00+14sw4992100 1.1 1011299
05:00+14sw3794100 2.4 1012232
08:00+15wsw388666 3.1 1012372
11:00+20w56575 0.8 10131321
14:00+22w574866 1.6 10122194
17:00+20wnw375744 0.1 1013903
20:00+18wnw36741 0.8 1014300
3 august, tue
tue323:00+15w11860 0.3 101623
02:00+13ssw22914 0.3 101736
05:00+12ssw229155 0.0 101651
08:00+15ssw238259 0.0 1017213
11:00+20sw34616 0.3 10161015
14:00+23ssw3651100 1.6 10141794
17:00+22wsw6853100 0.0 10131145
20:00+19wsw376576 0.1 1013478
4 august, wed
wed423:00+17wsw256976 0.0 1014154
02:00+15wsw267787 0.0 1014173
05:00+14sw238499 0.0 1014109
08:00+16sw2375100 0.0 1014253
11:00+17wsw1273100 0.0 1014467
14:00+15ssw1392100 1.8 1014212
17:00+15s2493100 2.6 1014240
20:00+15sw239192 2.7 1014173